Weather History for Manchester, NH

Change the Weather History Date:

Wednesday, March 5, 2014

  Actual Average Record
Temperature  
Mean Temperature 18 °F -  
Max Temperature 21 °F 38 °F 61 °F (1974)
Min Temperature 12 °F 18 °F -6 °F (1950)
Degree Days  
Heating Degree Days 47    
Moisture  
Dew Point 12 °F    
Average Humidity 73    
Maximum Humidity 85    
Minimum Humidity 54    
Precipitation  
Precipitation 0.00 in - - ()
Snow  
Snow 0.00 in - - ()
Snow Depth 9.00 in    
Sea Level Pressure  
Sea Level Pressure 30.36 in    
Wind  
Wind Speed 6 mph (NNE)    
Max Wind Speed 14 mph    
Max Gust Speed -    
Visibility 7 miles    
Events Snow    
Averages and records for this station are not official NWS values.
T = Trace of Precipitation, MM = Missing Value Source: NWS Daily Summary

Daily Weather History Graph

Daily Weather History Graph

Search for Another Location

Airport:

Trip Planner

Search our weather history database for the weather conditions in past years. The results will help you decide how hot, cold, wet, or windy it might be!

Date:

Astronomy

Mar. 05, 2014 Rise Set
Actual Time 6:15 AM EST 5:40 PM EST
Civil Twilight 5:46 AM EST 6:08 PM EST
Nautical Twilight 5:13 AM EST 6:41 PM EST
Astronomical Twilight 4:41 AM EST 7:14 PM EST
Moon 8:31 AM EST (3/5) 10:53 PM EST (3/5)
Length of Visible Light 12h 21m
Length of Day
11h 25m
Waxing Crescent, 23% of the Moon is Illuminated
Mar 5
Waxing Crescent
Mar 8
First Quarter
Mar 16
Full
Mar 23
Last Quarter
Mar 30
New

Hourly Weather History & Observations

Time (EST) Temp. Windchill Dew Point Humidity Pressure Visibility Wind Dir Wind Speed Gust Speed Precip Events Conditions
12:53 AM 21.9 °F 14.5 °F 12.9 °F 68% 30.30 in 10.0 mi NNW 5.8 mph - N/A   Overcast
1:53 AM 21.0 °F 16.2 °F 12.9 °F 71% 30.30 in 10.0 mi NNW 3.5 mph - N/A   Overcast
2:53 AM 21.0 °F 13.4 °F 12.0 °F 68% 30.30 in 9.0 mi NNW 5.8 mph - 0.00 in Snow Light Snow
3:53 AM 19.9 °F 10.1 °F 12.0 °F 71% 30.29 in 10.0 mi North 8.1 mph - 0.00 in Snow Light Snow
4:53 AM 19.9 °F 11.1 °F 12.9 °F 74% 30.31 in 3.0 mi North 6.9 mph - 0.00 in Snow Light Snow
5:53 AM 19.0 °F 11.1 °F 15.1 °F 85% 30.32 in 5.0 mi North 5.8 mph - 0.00 in Snow Light Snow
6:53 AM 19.0 °F 12.3 °F 15.1 °F 85% 30.33 in 4.0 mi NNE 4.6 mph - 0.00 in Snow Light Snow
7:53 AM 19.0 °F 9.0 °F 14.0 °F 81% 30.35 in 7.0 mi NNE 8.1 mph - 0.00 in Snow Light Snow
8:35 AM 19.0 °F 9.0 °F 12.9 °F 77% 30.29 in 9.0 mi NNE 8.1 mph - 0.00 in Snow Light Snow
8:53 AM 19.0 °F 11.1 °F 12.9 °F 77% 30.36 in 9.0 mi NE 5.8 mph - 0.00 in Snow Light Snow
9:25 AM 19.9 °F 12.1 °F 12.9 °F 74% 30.30 in 9.0 mi NNE 5.8 mph - 0.00 in Snow Light Snow
9:53 AM 19.9 °F 12.1 °F 12.9 °F 74% 30.36 in 7.0 mi Variable 5.8 mph - 0.00 in Snow Light Snow
10:23 AM 19.9 °F 10.1 °F 12.9 °F 74% 30.30 in 2.0 mi NNE 8.1 mph - 0.00 in Snow Light Snow
10:27 AM 19.9 °F 11.1 °F 12.9 °F 74% 30.30 in 1.5 mi North 6.9 mph - 0.00 in Snow Light Snow
10:53 AM 19.9 °F 9.3 °F 14.0 °F 78% 30.37 in 1.5 mi NNE 9.2 mph - 0.00 in Snow Light Snow
11:07 AM 19.9 °F 12.1 °F 12.9 °F 74% 30.31 in 2.0 mi NE 5.8 mph - 0.00 in Snow Light Snow
11:32 AM 19.9 °F 13.4 °F 14.0 °F 78% 30.30 in 2.0 mi NNE 4.6 mph - 0.00 in Snow Light Snow
11:53 AM 19.9 °F 12.1 °F 14.0 °F 78% 30.36 in 3.0 mi North 5.8 mph - 0.00 in Snow Light Snow
11:58 AM 19.9 °F 11.1 °F 14.0 °F 78% 30.30 in 2.5 mi North 6.9 mph - 0.00 in Snow Light Snow
12:00 PM 19.9 °F 11.1 °F 14.0 °F 78% 30.30 in 3.0 mi Variable 6.9 mph - 0.00 in Snow Light Snow
12:18 PM 19.9 °F 11.1 °F 14.0 °F 78% 30.29 in 2.0 mi NNE 6.9 mph - 0.00 in Snow Light Snow
12:53 PM 21.0 °F 13.4 °F 14.0 °F 74% 30.35 in 4.0 mi North 5.8 mph - 0.00 in Snow Light Snow
1:53 PM 21.9 °F 15.7 °F 14.0 °F 72% 30.35 in 10.0 mi North 4.6 mph - 0.00 in Snow Light Snow
2:53 PM 21.9 °F 15.7 °F 14.0 °F 72% 30.36 in 10.0 mi NE 4.6 mph - 0.00 in Snow Light Snow
3:28 PM 21.9 °F 15.7 °F 12.9 °F 68% 30.30 in 10.0 mi ENE 4.6 mph - 0.00 in   Overcast
3:53 PM 21.9 °F 13.4 °F 14.0 °F 72% 30.38 in 10.0 mi NE 6.9 mph - 0.00 in   Overcast
4:53 PM 21.9 °F 14.5 °F 14.0 °F 72% 30.39 in 8.0 mi NNE 5.8 mph - N/A   Overcast
5:53 PM 21.9 °F - 14.0 °F 72% 30.42 in 10.0 mi Calm Calm - N/A   Overcast
6:19 PM 21.9 °F 12.5 °F 14.0 °F 72% 30.37 in 6.0 mi NE 8.1 mph - 0.00 in Snow Light Snow
6:25 PM 21.9 °F 13.4 °F 15.1 °F 75% 30.37 in 1.8 mi NNE 6.9 mph - 0.00 in Snow Light Snow
6:38 PM 21.0 °F - 16.0 °F 81% 30.38 in 10.0 mi Calm Calm - 0.00 in   Overcast
6:53 PM 21.0 °F - 16.0 °F 81% 30.45 in 10.0 mi Calm Calm - 0.00 in   Overcast
7:53 PM 19.0 °F 5.6 °F 8.1 °F 62% 30.46 in 10.0 mi North 13.8 mph - N/A   Partly Cloudy
8:53 PM 18.0 °F 6.9 °F 5.0 °F 57% 30.50 in 10.0 mi NNW 9.2 mph - N/A   Clear
9:53 PM 17.1 °F 5.0 °F 3.9 °F 56% 30.52 in 10.0 mi NNW 10.4 mph - N/A   Clear
10:53 PM 15.1 °F 1.8 °F 1.9 °F 56% 30.54 in 10.0 mi NNW 11.5 mph - N/A   Clear
11:53 PM 12.9 °F 1.6 °F -0.9 °F 54% 30.56 in 10.0 mi North 8.1 mph - N/A   Clear